Regional Weather Roundup
Issued by NWS Kansas City/Pleasant Hill, MO

Home | Current Version | Previous Version | Text Only | Print | Product List | Glossary On
Versions: 1 2 3 4 5 6 7 8 9 10 11 12 13 14 15 16 17 18 19 20 21 22 23 24 25 26 27 28 29 30 31 32 33 34 35 36 37 38 39 40 41 42 43 44 45 46 47 48 49 50
000
ASUS43 KEAX 271910
RWREAX

WEATHER ROUNDUP FOR EASTERN KANSAS AND NORTHWEST MISSOURI
NATIONAL WEATHER SERVICE KANSAS CITY/PLEASANT HILL MO
200 PM CDT THU AUG 27 2015

KSZ040-057-103>105-MOZ028-029-037-043-272000-
...KANSAS CITY METROPOLITAN AREA...

CITY           SKY/WX    TMP DP  RH WIND       PRES   REMARKS
K.C. INTL      CLOUDY    69  62  78 E17       30.11F
K.C. DOWNTOWN  CLOUDY    67  63  87 E13       30.12F
LEES SUMMIT    TSTM      65  61  87 E15       30.15F
OLATHE - IXD   CLOUDY    71  68  90 E5        30.14R
OLATHE - OJC   LGT RAIN  68  67  96 NE10      30.14R
LAWRENCE       CLOUDY    78  67  68 E12       30.09R THUNDER

$$

MOZ001>008-011>017-020>025-030>033-038>040-044>046-053-054-272000-
...NORTHERN AND CENTRAL MISSOURI...

CITY           SKY/WX    TMP DP  RH WIND       PRES   REMARKS
ST. JOSEPH     PTSUNNY   73  66  78 SE15G23   30.05F
MOSBY          TSTM      66  64  94 N7        30.14S
WHITEMAN AFB   CLOUDY    74  61  63 CALM      30.13R
CLINTON          N/A     75  64  69 SE7       30.11R HAZE
SEDALIA        CLOUDY    77  61  57 E8        30.13S
WARSAW         NOT AVBL
CHILLICOTHE      N/A     72  60  66 SE15G21   30.04F
KIRKSVILLE     CLOUDY    74  58  57 S8        30.15F

$$

MOZ041-047>049-056>058-063>065-088>090-097-272000-
...EASTERN AND SOUTHERN MISSOURI...

CITY           SKY/WX    TMP DP  RH WIND       PRES   REMARKS
ST. LOUIS INTL PTSUNNY   79  55  43 W5        30.15F
SPIRIT OF STL  PTSUNNY   77  60  55 N7        30.14F
COLUMBIA       PTSUNNY   77  58  51 VRB3      30.14F
JEFFERSON CITY PTSUNNY   77  56  48 VRB3      30.13F
ROLLA          PTSUNNY   77  57  50 S7        30.13F
OSAGE BEACH    PTSUNNY   79  57  47 S7        30.14S
SPRINGFIELD    CLOUDY    76  61  59 S12       30.13F
BRANSON        CLOUDY    75  63  64 CALM      30.16F
JOPLIN         CLOUDY    75  65  70 S10       30.10F
WEST PLAINS    MOSUNNY   77  57  50 E3        30.17F

$$

IAZ060-094-KSZ022-034>040-054-083-096-NEZ052-066-093-272000-
...KANSAS...SOUTHEAST NEBRASKA AND IOWA...

CITY           SKY/WX    TMP DP  RH WIND       PRES   REMARKS
TOPEKA         CLOUDY    80  67  64 E14       30.06R
MANHATTAN      CLOUDY    88  67  49 S16G25    29.99F HX  91
EMPORIA        MOSUNNY   84  65  52 S16       30.03F
CHANUTE        LGT RAIN  70  65  84 S9        30.06F
WICHITA        MOSUNNY   86  63  45 SE25G36   30.02F
OMAHA          PTSUNNY   80  64  58 S26G35    29.98F
LINCOLN        PTSUNNY   83  68  60 SE24G31   29.96F
FALLS CITY     PTSUNNY   79  65  62 SE18G26   30.03F
LAMONI         CLOUDY    69  60  73 SE7       30.08S
DES MOINES     CLOUDY    68  61  78 S15       30.05F

$$




USA.gov is the U.S. government's official web portal to all federal, state and local government web resources and services.